TimePDT,TemperatureF,Dew PointF,Humidity,Sea Level PressureIn,VisibilityMPH,Wind Direction,Wind SpeedMPH,Gust SpeedMPH,PrecipitationIn,Events,Conditions,WindDirDegrees,DateUTC
12:54 AM,55.0,51.1,86,29.98,9.0,SSW,4.6,-,N/A,,Clear,210,2012-09-22 07:54:00
1:54 AM,55.0,50.0,83,29.98,9.0,SSW,3.5,-,N/A,,Clear,210,2012-09-22 08:54:00
2:54 AM,55.0,50.0,83,29.96,9.0,Calm,Calm,-,N/A,,Clear,0,2012-09-22 09:54:00
3:54 AM,53.1,48.9,86,29.96,9.0,Calm,Calm,-,N/A,,Clear,0,2012-09-22 10:54:00
4:54 AM,50.0,46.9,89,29.95,9.0,East,3.5,-,N/A,,Clear,90,2012-09-22 11:54:00
5:11 AM,51.8,48.2,88,29.92,10.0,Calm,Calm,-,N/A,,Partly Cloudy,0,2012-09-22 12:11:00
5:26 AM,51.8,48.2,88,29.92,10.0,Calm,Calm,-,N/A,,Mostly Cloudy,0,2012-09-22 12:26:00
5:54 AM,54.0,51.1,90,29.97,5.0,Calm,Calm,-,N/A,,Overcast,0,2012-09-22 12:54:00
6:54 AM,54.0,52.0,93,29.98,4.0,Calm,Calm,-,N/A,,Overcast,0,2012-09-22 13:54:00
7:44 AM,53.6,51.8,94,29.95,5.0,Calm,Calm,-,N/A,,Overcast,0,2012-09-22 14:44:00
7:54 AM,53.1,50.0,89,29.98,6.0,Calm,Calm,-,N/A,,Scattered Clouds,0,2012-09-22 14:54:00
8:54 AM,55.9,52.0,87,29.99,8.0,Calm,Calm,-,N/A,,Scattered Clouds,0,2012-09-22 15:54:00
9:54 AM,59.0,52.0,78,29.99,7.0,WNW,5.8,-,N/A,,Clear,300,2012-09-22 16:54:00
10:18 AM,59.0,53.6,82,29.96,6.0,WNW,6.9,-,N/A,,Haze,290,2012-09-22 17:18:00
10:54 AM,59.0,52.0,78,29.99,7.0,NW,8.1,-,N/A,,Clear,310,2012-09-22 17:54:00
11:54 AM,59.0,51.1,75,30.00,8.0,West,6.9,-,N/A,,Clear,280,2012-09-22 18:54:00
12:54 PM,61.0,52.0,72,30.00,8.0,WNW,9.2,-,N/A,,Clear,300,2012-09-22 19:54:00
1:54 PM,62.1,52.0,70,29.98,9.0,WNW,10.4,-,N/A,,Clear,300,2012-09-22 20:54:00
2:54 PM,64.0,52.0,65,29.98,10.0,Variable,4.6,-,N/A,,Partly Cloudy,0,2012-09-22 21:54:00
3:54 PM,63.0,51.1,65,29.97,10.0,SW,10.4,-,N/A,,Clear,220,2012-09-22 22:54:00
4:54 PM,59.0,51.1,75,29.97,9.0,SSW,6.9,-,N/A,,Clear,200,2012-09-22 23:54:00
5:30 PM,57.2,51.8,82,29.94,10.0,SSW,8.1,-,N/A,,Mostly Cloudy,210,2012-09-23 00:30:00
5:54 PM,57.0,51.1,81,29.98,9.0,South,8.1,-,N/A,,Overcast,180,2012-09-23 00:54:00
6:21 PM,55.4,51.8,88,29.94,8.0,SSW,8.1,-,N/A,,Overcast,210,2012-09-23 01:21:00
6:54 PM,55.0,51.1,86,29.98,8.0,SW,6.9,-,N/A,,Overcast,230,2012-09-23 01:54:00
7:54 PM,54.0,51.1,90,29.99,8.0,South,4.6,-,N/A,,Overcast,190,2012-09-23 02:54:00
8:54 PM,54.0,51.1,90,29.99,8.0,SW,3.5,-,N/A,,Overcast,220,2012-09-23 03:54:00
9:54 PM,54.0,51.1,90,29.99,8.0,Calm,Calm,-,N/A,,Overcast,0,2012-09-23 04:54:00
10:54 PM,53.1,51.1,93,29.98,8.0,East,4.6,-,N/A,,Scattered Clouds,80,2012-09-23 05:54:00
11:54 PM,53.1,48.9,86,29.98,9.0,Calm,Calm,-,N/A,,Clear,0,2012-09-23 06:54:00